STARLINK-2077 (47363 NORAD) Tracking and Keplerian Element Data

This shows tracking and keplerian element data for the satellite.

Feedback or suggestion? Click here.




ElementValue
Catalog47363
NameSTARLINK-2077
Epoch Orbit1282
Epoch Day101.91668981
Epoch Year2021
RAAN189.6873
Inclination53.0567
Eccentricity0.0001084
Argument of Perigee86.1078
Mean Anonmoly126.9908
Mean Motion15.06396243
Decay Rate-0.00034905
L11 47363U 21005Q 21101.91668981 -.00034905 00000-0 -23362-2 0 9995
L22 47363 53.0567 189.6873 0001084 86.1078 126.9908 15.06396243 12823

Live tracking and technical data element details for STARLINK-2077 (NORAD 47363). STARLINK-2077 can be tracked NOW for your location showing map with azimuth and elevation plus other details from your city location.

Track the satellite on the map from your city or location and see movement details for azimuth, elevation, latitude, longitude, range, height, and movement on the map or in text.







IsCatalogInMostPopularTable: catalog: 47363, numindb: 15
Update: records affected: 1



GetName: 47363 STARLINK-2077

Hit Count: updated at: Tue, 13 Apr 2021 04:50:54 GMT